Weather History for Hallock, MN

Change the Weather History Date:

Tuesday, October 1, 2013

  Actual Average Record
Temperature  
Mean Temperature 57 °F -  
Max Temperature 68 °F 65 °F 89 °F (1989)
Min Temperature 46 °F 37 °F 17 °F (2003)
Degree Days  
Heating Degree Days 8    
Growing Degree Days 7 (Base 50)    
Moisture  
Dew Point 40 °F    
Average Humidity 58    
Maximum Humidity 94    
Minimum Humidity 26    
Precipitation  
Precipitation 0.00 in - - ()
Sea Level Pressure  
Sea Level Pressure 29.66 in    
Wind  
Wind Speed 15 mph (WSW)    
Max Wind Speed 33 mph    
Max Gust Speed 44 mph    
Visibility 10 miles    
Events Rain    
Averages and records for this station are not official NWS values.
T = Trace of Precipitation, MM = Missing Value Source: NWS Daily Summary

Daily Weather History Graph

Daily Weather History Graph

Search for Another Location

Airport:

Trip Planner

Search our weather history database for the weather conditions in past years. The results will help you decide how hot, cold, wet, or windy it might be!

Date:

Astronomy

Oct. 01, 2013 Rise Set
Actual Time 7:27 AM CDT 7:06 PM CDT
Civil Twilight 6:56 AM CDT 7:37 PM CDT
Nautical Twilight 6:19 AM CDT 8:13 PM CDT
Astronomical Twilight 5:42 AM CDT 8:51 PM CDT
Moon 3:48 AM CDT (10/1) 5:21 PM CDT (10/1)
Length of Visible Light 12h 41m
Length of Day
11h 38m
Waning Crescent, 12% of the Moon is Illuminated
Oct 1
Waning Crescent
Oct 4
New
Oct 11
First Quarter
Oct 18
Full
Oct 26
Last Quarter

Hourly Weather History & Observations

Time (CDT) Temp. Windchill Dew Point Humidity Pressure Visibility Wind Dir Wind Speed Gust Speed Precip Events Conditions
12:13 AM 60.8 °F - 50.0 °F 68% 29.47 in 10.0 mi WSW 13.8 mph - N/A   Overcast
12:33 AM 60.8 °F - 51.8 °F 72% 29.48 in 10.0 mi NW 15.0 mph 21.9 mph N/A Rain Light Rain
12:53 AM 57.2 °F - 53.6 °F 88% 29.48 in 10.0 mi NW 11.5 mph - N/A Rain Light Rain
1:13 AM 57.2 °F - 53.6 °F 88% 29.50 in 10.0 mi WNW 6.9 mph - N/A   Overcast
1:33 AM 55.4 °F - 53.6 °F 94% 29.50 in 10.0 mi WNW 12.7 mph - N/A   Scattered Clouds
1:53 AM 55.4 °F - 53.6 °F 94% 29.50 in 10.0 mi WNW 4.6 mph - N/A   Clear
2:13 AM 53.6 °F - 51.8 °F 94% 29.51 in 10.0 mi West 3.5 mph - N/A   Clear
2:33 AM 51.8 °F - 50.0 °F 94% 29.51 in 7.0 mi WSW 3.5 mph - N/A   Clear
2:53 AM 50.0 °F - 48.2 °F 94% 29.51 in 10.0 mi SSW 6.9 mph - N/A   Clear
3:13 AM 50.0 °F - 48.2 °F 94% 29.51 in 10.0 mi SSW 5.8 mph - N/A   Clear
3:33 AM 51.8 °F - 50.0 °F 94% 29.51 in 10.0 mi SSW 11.5 mph - N/A   Clear
3:53 AM 51.8 °F - 48.2 °F 88% 29.52 in 10.0 mi SSW 9.2 mph - N/A   Clear
4:13 AM 51.8 °F - 48.2 °F 88% 29.52 in 10.0 mi SW 9.2 mph - N/A   Clear
4:33 AM 51.8 °F - 48.2 °F 88% 29.53 in 10.0 mi SW 11.5 mph - N/A   Clear
4:53 AM 50.0 °F - 46.4 °F 87% 29.53 in 10.0 mi SW 10.4 mph - N/A   Clear
5:13 AM 50.0 °F - 46.4 °F 87% 29.53 in 10.0 mi WSW 11.5 mph - N/A   Clear
5:33 AM 51.8 °F - 44.6 °F 76% 29.54 in 10.0 mi WSW 11.5 mph - N/A   Clear
5:53 AM 50.0 °F - 44.6 °F 82% 29.54 in 10.0 mi WSW 10.4 mph - N/A   Clear
6:13 AM 50.0 °F - 42.8 °F 76% 29.55 in 10.0 mi WSW 11.5 mph - N/A   Clear
6:33 AM 50.0 °F - 42.8 °F 76% 29.56 in 10.0 mi WSW 11.5 mph - N/A   Clear
6:53 AM 46.4 °F 41.9 °F 41.0 °F 81% 29.57 in 10.0 mi SW 9.2 mph - N/A   Clear
7:13 AM 46.4 °F 41.5 °F 41.0 °F 81% 29.58 in 10.0 mi SW 10.4 mph - N/A   Clear
7:33 AM 46.4 °F 41.1 °F 41.0 °F 81% 29.58 in 10.0 mi SW 11.5 mph - N/A   Clear
7:53 AM 46.4 °F 41.9 °F 41.0 °F 81% 29.59 in 10.0 mi SW 9.2 mph - N/A   Clear
8:13 AM 46.4 °F 41.5 °F 41.0 °F 81% 29.59 in 10.0 mi SW 10.4 mph - N/A   Clear
8:33 AM 48.2 °F - 42.8 °F 82% 29.60 in 10.0 mi SW 11.5 mph - N/A   Clear
8:53 AM 51.8 °F - 42.8 °F 71% 29.61 in 10.0 mi SW 12.7 mph - N/A   Clear
9:13 AM 53.6 °F - 41.0 °F 62% 29.62 in 10.0 mi SW 16.1 mph - N/A   Clear
9:33 AM 55.4 °F - 41.0 °F 58% 29.62 in 10.0 mi WSW 17.3 mph 26.5 mph N/A   Clear
9:53 AM 55.4 °F - 41.0 °F 58% 29.64 in 10.0 mi WSW 21.9 mph 27.6 mph N/A   Clear
10:13 AM 57.2 °F - 39.2 °F 51% 29.65 in 10.0 mi West 20.7 mph 26.5 mph N/A   Clear
10:33 AM 59.0 °F - 41.0 °F 51% 29.65 in 10.0 mi West 24.2 mph 29.9 mph N/A   Clear
10:53 AM 60.8 °F - 41.0 °F 48% 29.65 in 10.0 mi West 23.0 mph 27.6 mph N/A   Clear
11:13 AM 60.8 °F - 39.2 °F 45% 29.66 in 10.0 mi West 28.8 mph 34.5 mph N/A   Clear
11:33 AM 62.6 °F - 39.2 °F 42% 29.65 in 10.0 mi West 28.8 mph 39.1 mph N/A   Clear
11:53 AM 62.6 °F - 39.2 °F 42% 29.65 in 10.0 mi West 29.9 mph 39.1 mph N/A   Clear
12:13 PM 62.6 °F - 37.4 °F 39% 29.66 in 10.0 mi West 26.5 mph 38.0 mph N/A   Clear
12:33 PM 64.4 °F - 37.4 °F 37% 29.65 in 10.0 mi West 29.9 mph 43.7 mph N/A   Clear
12:53 PM 64.4 °F - 35.6 °F 34% 29.65 in 10.0 mi West 33.4 mph 43.7 mph N/A   Clear
1:13 PM 66.2 °F - 35.6 °F 32% 29.66 in 10.0 mi West 32.2 mph 41.4 mph N/A   Clear
1:33 PM 66.2 °F - 33.8 °F 30% 29.66 in 10.0 mi West 32.2 mph 43.7 mph N/A   Clear
1:53 PM 66.2 °F - 33.8 °F 30% 29.67 in 10.0 mi West 32.2 mph 42.6 mph N/A   Clear
2:13 PM 66.2 °F - 33.8 °F 30% 29.68 in 10.0 mi West 31.1 mph 41.4 mph N/A   Clear
2:33 PM 66.2 °F - 33.8 °F 30% 29.69 in 10.0 mi West 28.8 mph 40.3 mph N/A   Clear
2:53 PM 66.2 °F - 32.0 °F 28% 29.69 in 10.0 mi West 31.1 mph 40.3 mph N/A   Scattered Clouds
3:13 PM 66.2 °F - 33.8 °F 30% 29.69 in 10.0 mi West 27.6 mph 38.0 mph N/A   Scattered Clouds
3:33 PM 68.0 °F - 33.8 °F 28% 29.70 in 10.0 mi West 31.1 mph 38.0 mph N/A   Scattered Clouds
3:53 PM 68.0 °F - 33.8 °F 28% 29.71 in 10.0 mi West 28.8 mph 36.8 mph N/A   Mostly Cloudy
4:13 PM 68.0 °F - 33.8 °F 28% 29.71 in 10.0 mi West 27.6 mph 35.7 mph N/A   Mostly Cloudy
4:33 PM 68.0 °F - 33.8 °F 28% 29.72 in 10.0 mi West 29.9 mph 36.8 mph N/A   Mostly Cloudy
4:53 PM 68.0 °F - 33.8 °F 28% 29.72 in 10.0 mi West 28.8 mph 36.8 mph N/A   Mostly Cloudy
5:13 PM 66.2 °F - 33.8 °F 30% 29.73 in 10.0 mi West 25.3 mph 31.1 mph N/A   Scattered Clouds
5:33 PM 66.2 °F - 30.2 °F 26% 29.74 in 10.0 mi West 21.9 mph 33.4 mph N/A   Scattered Clouds
5:53 PM 66.2 °F - 32.0 °F 28% 29.74 in 10.0 mi West 24.2 mph 29.9 mph N/A   Clear
6:13 PM 64.4 °F - 32.0 °F 30% 29.75 in 10.0 mi West 18.4 mph 26.5 mph N/A   Clear
6:33 PM 64.4 °F - 33.8 °F 32% 29.76 in 10.0 mi West 15.0 mph - N/A   Clear
6:53 PM 62.6 °F - 33.8 °F 34% 29.77 in 10.0 mi West 12.7 mph - N/A   Clear
7:13 PM 60.8 °F - 33.8 °F 36% 29.77 in 10.0 mi West 11.5 mph - N/A   Clear
7:33 PM 59.0 °F - 35.6 °F 42% 29.79 in 10.0 mi West 11.5 mph - N/A   Clear
7:53 PM 57.2 °F - 35.6 °F 44% 29.79 in 10.0 mi WSW 10.4 mph - N/A   Clear
8:13 PM 55.4 °F - 35.6 °F 47% 29.80 in 10.0 mi WSW 9.2 mph - N/A   Clear
8:33 PM 53.6 °F - 35.6 °F 51% 29.80 in 10.0 mi WSW 9.2 mph - N/A   Clear
8:53 PM 53.6 °F - 35.6 °F 51% 29.81 in 10.0 mi WSW 8.1 mph - N/A   Clear
9:13 PM 53.6 °F - 35.6 °F 51% 29.81 in 10.0 mi WSW 5.8 mph - N/A   Clear
9:33 PM 51.8 °F - 35.6 °F 54% 29.81 in 10.0 mi SW 4.6 mph - N/A   Clear
9:53 PM 50.0 °F - 33.8 °F 54% 29.82 in 10.0 mi SW 6.9 mph - N/A   Clear
10:13 PM 51.8 °F - 35.6 °F 54% 29.82 in 10.0 mi WSW 10.4 mph - N/A   Clear
10:33 PM 51.8 °F - 35.6 °F 54% 29.83 in 10.0 mi WSW 10.4 mph - N/A   Clear
10:53 PM 48.2 °F - 35.6 °F 62% 29.83 in 10.0 mi SW 8.1 mph - N/A   Clear
11:13 PM 46.4 °F 44.3 °F 35.6 °F 66% 29.84 in 10.0 mi SSW 4.6 mph - N/A   Clear
11:33 PM 46.4 °F 42.4 °F 35.6 °F 66% 29.85 in 10.0 mi SSW 8.1 mph - N/A   Clear
11:53 PM 46.4 °F 42.4 °F 37.4 °F 71% 29.85 in 10.0 mi SSW 8.1 mph - N/A   Clear